E20YUC-1 Weather Reports


Display with metric or nautical units.
time (UTC)temp
F
wind
direction
speed
MPH
gust
MPH
rain 1hr
in
rain 24hr
in
rain mn
in
humidity
%
barometer
mb
20260505014244 87 22 0.0 6.0 0.00 0.00 0.00 71 999.3
20260505013844 87 22 0.0 4.0 0.00 0.00 0.00 71 999.2
20260505013804 87 22 4.0 4.0 0.00 0.00 0.00 71 999.2
20260505013609 87 22 0.0 2.0 0.00 0.00 0.00 72 999.3
20260505013109 87 22 0.0 3.0 0.00 0.00 0.00 72 999.1
20260505012109 86 22 2.0 5.0 0.00 0.00 0.00 73 999.0
20260505011610 86 90 0.0 4.0 0.00 0.00 0.00 74 999.1
20260505010608 85 0 0.0 0.0 0.00 0.00 0.00 74 999.1
20260505005608 84 22 4.0 4.0 0.00 0.00 0.00 75 998.7
20260505005147 84 0 4.0 4.0 0.00 0.00 0.00 76 998.6
20260505004108 82 0 2.0 2.0 0.00 0.00 0.00 77 998.8
20260505003608 81 0 2.0 5.0 0.00 0.00 0.00 78 999.0
20260505003109 81 0 0.0 0.0 0.00 0.00 0.00 78 999.1
20260505002610 80 292 0.0 0.0 0.00 0.00 0.00 78 999.2
20260505002108 80 90 0.0 0.0 0.00 0.00 0.00 79 999.1
20260505001608 80 90 0.0 1.0 0.00 0.00 0.00 79 999.1
20260505000608 80 22 0.0 0.0 0.00 0.00 0.00 79 998.8
20260505000110 79 22 0.0 0.0 0.00 0.00 0.00 79 998.7
20260504235608 79 0 0.0 0.0 0.00 0.00 0.00 79 998.7
20260504235156 79 22 0.0 0.0 0.00 0.00 0.00 80 998.6
20260504234608 79 0 2.0 2.0 0.00 0.00 0.00 80 998.5
20260504234108 79 22 0.0 0.0 0.00 0.00 0.00 80 998.3
20260504233609 79 90 0.0 0.0 0.00 0.00 0.00 80 998.2
20260504232607 78 90 0.0 0.0 0.00 0.00 0.00 80 997.7
20260504232107 78 90 0.0 0.0 0.00 0.00 0.00 80 997.7
20260504231607 78 22 0.0 0.0 0.00 0.00 0.00 80 997.7
20260504231109 78 90 0.0 0.0 0.00 0.00 0.00 80 997.6
20260504230608 78 0 0.0 0.0 0.00 0.00 0.00 80 997.2
20260504230107 78 22 0.0 0.0 0.00 0.00 0.00 80 997.1
20260504225107 78 22 0.0 2.0 0.00 0.00 0.00 80 996.8
20260504224609 78 22 0.0 0.0 0.00 0.00 0.00 80 996.7
20260504224107 78 22 0.0 0.0 0.00 0.00 0.00 80 996.6
20260504223107 79 22 2.0 4.0 0.00 0.00 0.00 79 996.3
20260504222607 79 292 2.0 2.0 0.00 0.00 0.00 79 996.3
20260504222109 79 292 0.0 0.0 0.00 0.00 0.00 79 996.4
20260504221607 79 22 0.0 3.0 0.00 0.00 0.00 79 996.5
20260504221107 79 0 0.0 0.0 0.00 0.00 0.00 78 996.4
20260504220107 79 0 2.0 2.0 0.00 0.00 0.00 78 996.6
20260504215608 79 90 0.0 0.0 0.00 0.00 0.00 78 996.7
20260504215107 79 0 0.0 0.0 0.00 0.00 0.00 77 996.7
20260504214606 79 292 2.0 2.0 0.00 0.00 0.00 77 996.7
20260504214106 79 0 0.0 2.0 0.00 0.00 0.00 77 997.0
20260504213606 79 292 0.0 0.0 0.00 0.00 0.00 77 997.0
20260504213113 79 292 0.0 0.0 0.00 0.00 0.00 77 996.9
20260504212606 80 292 0.0 0.0 0.00 0.00 0.00 77 997.1
20260504212106 79 292 0.0 0.0 0.00 0.00 0.00 77 997.2
20260504211106 79 292 0.0 0.0 0.00 0.00 0.00 77 997.3
20260504210608 79 0 0.0 0.0 0.00 0.00 0.00 77 997.3
20260504210106 79 292 0.0 0.0 0.00 0.00 0.00 77 997.6
20260504205606 79 0 0.0 0.0 0.00 0.00 0.00 78 997.7
20260504204606 79 22 11.0 11.0 0.00 0.00 0.00 78 997.7
20260504204108 79 0 0.0 0.0 0.00 0.00 0.00 78 997.7
20260504203606 79 22 0.0 0.0 0.00 0.00 0.00 78 997.9
20260504202606 79 22 0.0 0.0 0.00 0.00 0.00 78 998.0
20260504202106 78 22 0.0 0.0 0.00 0.00 0.00 78 998.0
20260504201607 78 22 0.0 0.0 0.00 0.00 0.00 78 998.0
20260504201106 78 90 0.0 0.0 0.00 0.00 0.00 79 998.2
20260504200605 78 90 0.0 0.0 0.00 0.00 0.00 79 998.2
20260504195605 78 90 0.0 3.0 0.00 0.00 0.00 79 997.9
20260504195107 78 90 0.0 3.0 0.00 0.00 0.00 79 998.3
20260504194605 78 22 2.0 3.0 0.00 0.00 0.00 79 998.3
20260504193605 78 90 0.0 2.0 0.00 0.00 0.00 80 998.6
20260504193106 78 22 0.0 2.0 0.00 0.00 0.00 80 998.6
20260504192607 78 90 0.0 3.0 0.00 0.00 0.00 80 998.8
20260504191605 79 90 4.0 6.0 0.00 0.00 0.00 80 998.8
20260504190605 79 22 0.0 4.0 0.00 0.00 0.00 79 998.5
20260504190107 79 90 0.0 3.0 0.00 0.00 0.00 79 998.4
20260504185105 79 90 0.0 0.0 0.00 0.00 0.00 79 998.0
20260504184105 79 90 0.0 2.0 0.00 0.00 0.00 79 997.9
20260504183606 79 90 2.0 9.0 0.00 0.00 0.00 79 997.8
20260504182604 79 22 5.0 5.0 0.00 0.00 0.00 79 997.9
20260504181604 79 90 5.0 5.0 0.00 0.00 0.00 78 998.3
20260504181106 80 90 0.0 9.0 0.00 0.00 0.00 78 998.4
20260504180604 80 90 0.0 4.0 0.00 0.00 0.00 78 998.5
20260504180104 80 90 2.0 8.0 0.00 0.00 0.00 78 998.8
20260504175104 80 90 6.0 10.0 0.00 0.00 0.00 77 999.1
20260504174606 80 22 0.0 9.0 0.00 0.00 0.00 78 999.1
20260504174104 81 22 1.0 8.0 0.00 0.00 0.00 78 999.1
20260504173104 81 0 1.0 12.0 0.00 0.00 0.00 77 999.5
20260504172604 81 90 4.0 7.0 0.00 0.00 0.00 77 999.5
20260504172106 82 22 7.0 10.0 0.00 0.00 0.00 76 999.5
20260504171604 82 22 9.0 11.0 0.00 0.00 0.00 77 999.4
20260504171104 82 22 0.0 12.0 0.00 0.00 0.00 77 999.4
20260504170104 83 90 9.0 9.0 0.00 0.00 0.00 77 999.6
20260504150602 84 22 0.0 0.0 0.00 0.00 0.00 74 998.7
20260504141103 84 90 0.0 0.0 0.00 0.00 0.00 72 998.3
20260504140602 84 22 0.0 0.0 0.00 0.00 0.00 72 998.3
20260504140104 84 90 0.0 0.0 0.00 0.00 0.00 72 998.1
20260504130703 85 90 0.0 0.0 0.00 0.00 0.00 71 996.7
20260504130218 85 90 0.0 0.0 0.00 0.00 0.00 71 996.6
20260504120217 85 22 0.0 0.0 0.00 0.00 0.00 73 995.7
20260504110719 85 90 0.0 6.0 0.00 0.00 0.00 74 995.2
20260504081715 100 0 0.0 10.0 0.00 0.00 0.00 49 993.6
20260504081217 101 22 4.0 8.0 0.00 0.00 0.00 49 993.6
20260504080215 102 22 3.0 6.0 0.00 0.00 0.00 49 993.7
20260504070214 104 0 0.0 5.0 0.00 0.00 0.00 48 994.4
20260504050713 99 22 0.0 5.0 0.00 0.00 0.00 53 997.4
20260504045713 99 22 0.0 4.0 0.00 0.00 0.00 53 997.3
20260504045215 99 22 1.0 8.0 0.00 0.00 0.00 54 997.4
20260504044713 99 22 0.0 0.0 0.00 0.00 0.00 54 997.3
20260504044213 98 22 0.0 0.0 0.00 0.00 0.00 55 997.5
20260504043713 98 22 0.0 2.0 0.00 0.00 0.00 55 997.6
20260504043213 98 22 0.0 3.0 0.00 0.00 0.00 55 997.5
20260504042715 98 22 0.0 1.0 0.00 0.00 0.00 56 997.7
20260504041713 97 22 0.0 4.0 0.00 0.00 0.00 56 997.7
20260504041213 97 90 8.0 8.0 0.00 0.00 0.00 56 997.8
20260504040713 97 22 0.0 4.0 0.00 0.00 0.00 57 997.7
20260504035712 97 22 0.0 5.0 0.00 0.00 0.00 57 998.0
20260504035212 97 22 0.0 0.0 0.00 0.00 0.00 58 998.0
20260504034212 97 22 0.0 2.0 0.00 0.00 0.00 58 998.2
20260504033714 97 22 0.0 0.0 0.00 0.00 0.00 59 998.2
20260504033212 96 22 0.0 2.0 0.00 0.00 0.00 59 998.0
20260504032212 96 22 0.0 2.0 0.00 0.00 0.00 62 998.0
20260504031712 95 90 0.0 0.0 0.00 0.00 0.00 62 998.1
20260504031214 95 22 0.0 2.0 0.00 0.00 0.00 62 998.2
20260504030212 95 22 0.0 3.0 0.00 0.00 0.00 63 998.2
20260504025212 94 22 0.0 0.0 0.00 0.00 0.00 64 998.3
20260504024714 94 22 0.0 3.0 0.00 0.00 0.00 65 998.4
20260504024212 -52 22 0.0 0.0 0.00 0.00 0.00 66 998.4
20260504023712 93 22 5.0 5.0 0.00 0.00 0.00 66 998.2
20260504022712 93 90 0.0 4.0 0.00 0.00 0.00 67 998.4
20260504022213 92 22 0.0 5.0 0.00 0.00 0.00 67 998.4
20260504021711 92 0 0.0 3.0 0.00 0.00 0.00 67 998.4
20260504021212 92 22 3.0 4.0 0.00 0.00 0.00 68 998.3
20260504020713 92 22 0.0 3.0 0.00 0.00 0.00 68 998.4
20260504020211 35 90 0.0 0.0 0.00 0.00 0.00 68 998.4
20260504015713 92 22 0.0 3.0 0.00 0.00 0.00 69 998.3
20260504014711 92 22 0.0 3.0 0.00 0.00 0.00 69 998.4